Location: El Centro
(32.7920°N, 115.5620°W)
Time: 21:32:06
(UTC-07:00)

Hamsat - Visible Passes

Search period start: 24 August 2016 00:00
Search period end: 03 September 2016 00:00
Orbit: 586 x 620 km, 97.6° (Epoch: 24 August)

Date Brightness Start Highest point End Pass type
(mag) Time Alt. Az. Time Alt. Az. Time Alt. Az.
24 Aug ? 04:09:24 10° ENE 04:11:48 15° E 04:14:11 10° SE visible
24 Aug ? 05:43:45 10° N 05:47:38 35° WNW 05:51:32 10° SW visible
25 Aug ? 04:20:41 10° NE 04:23:53 20° E 04:27:05 10° SE visible
26 Aug ? 04:32:16 10° NE 04:35:57 28° E 04:39:40 10° SSE visible
27 Aug ? 04:43:59 10° NNE 04:48:01 40° E 04:52:03 10° S visible
28 Aug ? 04:55:50 10° NNE 05:00:03 57° E 05:04:17 10° S visible
29 Aug ? 05:07:46 10° NNE 05:12:04 83° ESE 05:16:22 10° S visible
30 Aug ? 05:19:48 10° N 05:24:04 70° WNW 05:28:20 10° SSW visible
31 Aug ? 03:59:03 10° ENE 04:00:04 11° E 04:01:04 10° ESE visible
31 Aug ? 05:31:55 10° N 05:36:03 48° WNW 05:40:12 10° SSW visible
01 Sep ? 04:09:37 10° ENE 04:12:10 15° E 04:14:43 10° SE visible
01 Sep ? 05:44:07 10° N 05:48:00 34° WNW 05:51:54 10° SW visible
02 Sep ? 04:20:57 10° NE 04:24:16 21° E 04:27:34 10° SE visible
